Regional Weather Roundup
Issued by NWS State College, PA

Home | Current Version | Previous Version | Graphics & Text | Print | Product List | Glossary On
Versions: 1 2 3 4 5 6 7 8 9 10 11 12 13 14 15 16 17 18 19 20 21 22 23 24 25 26 27 28 29 30 31 32 33 34 35 36 37 38 39 40 41 42 43 44 45 46 47 48 49 50
000
ASUS41 KCTP 310510
RWRCTP

REGIONAL WEATHER ROUNDUP
NATIONAL WEATHER SERVICE STATE COLLEGE PA
1200 AM EST SAT JAN 31 2015

Note: "fair" indicates few or no clouds below 12,000 feet with no
significant weather and/or obstructions to visibility.

* = STATION THAT DOES NOT REPORT PRECIPITATION /E.G. RAIN...SNOW...ETC/
    THUNDER OR FOG.

PAZ002>004-007>009-013>016-020>023-029>032-310600-
WESTERN PENNSYLVANIA

CITY           SKY/WX    TMP DP  RH WIND       PRES   REMARKS
ERIE           CLOUDY    15   8  73 W10       30.39S WCI   2
MEADVILLE      LGT SNOW  11   6  81 NW7       30.32S WCI   0
FRANKLIN*      CLOUDY    10   3  72 NW5       30.31S WCI   2
NEW CASTLE     FAIR       7   2  80 CALM      30.40S
BEAVER COUNTY  NOT AVBL
BUTLER*        CLOUDY    12   7  79 W6        30.37S WCI   3
PITTSBURGH INT CLEAR      9   3  77 W5        30.37S WCI   1
PITTSBURGH     PTCLDY    11   3  70 NW5       30.36S WCI   3
INDIANA*       CLOUDY    12   7  79 W10G17    30.34S WCI  -1
LATROBE        CLOUDY    14   5  67 W8        30.38S WCI   3
WASHINGTON CO* CLEAR      9   3  78 CALM      30.39S
$$

PAZ004>006-010>012-017>019-024>028-033>037-041-042-045-046-049>053-310600-
CENTRAL PENNSYLVANIA

CITY           SKY/WX    TMP DP  RH WIND       PRES   REMARKS
BRADFORD       MOCLDY     2  -4  76 NW16      30.19S WCI -18
DUBOIS         CLOUDY     8   1  73 NW12G21   30.24S WCI  -7
CLEARFIELD     MOCLDY     7  -2  66 NW15G21   30.26R WCI -10
JOHNSTOWN      LGT SNOW   8   3  80 W21G30    30.18S VSB 1   WCI -12
ALTOONA        FLURRIES  26   4  38 NW12      30.24S
STATE COLLEGE  PTCLDY     9  -1  64 W12G18    30.25S WCI  -6
WILLIAMSPORT   MOCLDY    11  -2  56 W13       30.25S WCI  -4
SELINSGROVE    CLEAR     13  -1  54 NW12G20   30.26S WCI  -1
FT INDIANTOWN  CLEAR     14  -1  49 W14G20    30.21S WCI  -1
CAPITAL CITY   CLEAR     15   0  51 NW14G25   30.25R WCI   0
HARRISBURG     PTCLDY    15   1  53 NW22      30.23S WCI  -3
YORK           CLEAR     15   0  51 NW14G23   30.22S WCI   0
$$

PAZ038>040-043-044-047-048-054-055-060>062-067>071-310600-
EASTERN PENNSYLVANIA

CITY           SKY/WX    TMP DP  RH WIND       PRES   REMARKS
SCRANTON       CLOUDY    13   1  59 NW23      30.13S WCI  -6
MOUNT POCONO   MIX PCPN   8  -1  66 NW26G40   29.94F WCI -14
ALLENTOWN      CLOUDY    16   1  51 NW16G24   30.14R WCI   1
QUAKERTOWN*    CLEAR     14   0  52 NW14G28   30.13R WCI  -1
READING        CLEAR     15   1  53 NW23G31   30.18R WCI  -3
LANCASTER      CLEAR     15   1  53 NW18G28   30.20R WCI  -2
COATESVILLE    CLEAR     18   5  57 NW21G37   30.13S WCI   1
POTTSTOWN      CLEAR     15   1  53 NW10G18   30.16R WCI   2
BLUE BELL      CLEAR     19   3  49 NW9G18    30.12R WCI   9
DOYLESTOWN     PTCLDY    14   2  58 NW13G23   30.10R WCI   0
WILLOW GROVE   NOT AVBL
NORTH PHILA    CLEAR     20   1  43 NW23G36   30.13R WCI   3
PHILADELPHIA   CLEAR     20   0  41 NW30G41   30.16R WCI   1
$$


USA.gov is the U.S. government's official web portal to all federal, state and local government web resources and services.